Regional Weather Roundup
Issued by NWS

Home | Current Version | Previous Version | Graphics & Text | Print | Product List | Glossary On
Versions: 1 2 3 4 5 6 7 8 9 10 11 12 13 14 15 16 17 18 19 20 21 22 23 24 25 26 27 28
000
ASUS45 KCYS 210010
RWRWY

WYOMING REGIONAL WEATHER ROUNDUP
NATIONAL WEATHER SERVICE CHEYENNE WY
600 PM MDT SUN APR 20 2014

NOTE:  "FAIR" INDICATES FEW OR NO CLOUDS BELOW 12,000 FEET
WITH NO SIGNIFICANT WEATHER AND/OR OBSTRUCTIONS TO VISIBILITY.

WYZ001-210100-
YELLOWSTONE NATIONAL PARK

CITY           SKY/WX    TMP DP  RH WIND       PRES   REMARKS
LK YELLOWSTONE   N/A     46  19  34 W8        30.24R
6HR MIN TEMP:  45; 6HR MAX TEMP:  49;

W YELLOWSTONE  NOT AVBL

$$
WYZ002>013-054>058-071-098>099-210100-
NORTHERN WYOMING

CITY           SKY/WX    TMP DP  RH WIND       PRES   REMARKS
JACKSON        SUNNY     55  19  24 W12       30.19R
CODY           SUNNY     61  25  25 N13       30.10R
GREYBULL       SUNNY     68  21  16 NW18G25   30.03R
6HR MIN TEMP:  62; 6HR MAX TEMP:  70;

WORLAND        SUNNY     68  27  21 N17       30.03R
6HR MIN TEMP:  62; 6HR MAX TEMP:  71;

SHERIDAN         N/A     59  25  27 VRB13       N/A
6HR MIN TEMP:  58; 6HR MAX TEMP:  65;

BUFFALO        SUNNY     59  28  30 N17       30.12R
6HR MIN TEMP:  51; 6HR MAX TEMP:  60;

GILLETTE       SUNNY     62  31  31 N15       30.08R
6HR MIN TEMP:  56; 6HR MAX TEMP:  64;

HULETT         FAIR      61  30  31 NW9       30.08
NEWCASTLE      FAIR      64  27  24 N16       30.02

$$
WYZ014>020-022>026-101>103-210100-
CENTRAL WYOMING

CITY           SKY/WX    TMP DP  RH WIND       PRES   REMARKS
BIG PINEY      MOSUNNY   59  11  15 N9        30.19R
6HR MIN TEMP:  58; 6HR MAX TEMP:  63;

PINEDALE       PTCLDY    52  10  19 NW14G23   30.21S
DUBOIS         FAIR      54  10  17 N14G22    30.17S
LANDER         MOSUNNY   69  11  10 W8        30.04R
6HR MIN TEMP:  63; 6HR MAX TEMP:  70;

RIVERTON       SUNNY     69   7   9 NW17      30.05R
6HR MIN TEMP:  63; 6HR MAX TEMP:  72;

CASPER         SUNNY     65  31  28 NE15      30.06R
6HR MIN TEMP:  65; 6HR MAX TEMP:  71;

DOUGLAS        SUNNY     66  32  28 NE14      30.05R
6HR MIN TEMP:  65; 6HR MAX TEMP:  72;


$$
WYZ021-027>030-104>119-210100-
SOUTHERN WYOMING

CITY           SKY/WX    TMP DP  RH WIND       PRES   REMARKS
EVANSTON       MOSUNNY   58  13  17 W17G23    30.22R
6HR MIN TEMP:  57; 6HR MAX TEMP:  63;

KEMMERER       PTCLDY    55  14  19 W17G24    30.21S
FORT BRIDGER   FAIR      63  14  15 W17G24    30.22S
ROCK SPRINGS   MOSUNNY   64  16  15 NW18G28   30.15R
6HR MIN TEMP:  63; 6HR MAX TEMP:  69;

DIXON          FAIR      61  33  35 S12       30.19S
RAWLINS        PTSUNNY   64  18  17 NW15      30.11S
6HR MIN TEMP:  59; 6HR MAX TEMP:  67;

SARATOGA       FAIR      59  30  33 SW14G22   30.16R
LARAMIE        PTSUNNY   59  23  25 NW10      30.13R
6HR MIN TEMP:  56; 6HR MAX TEMP:  63; 6HR PCP: TRACE;

CHEYENNE       PTSUNNY   67  24  19 N14       30.06S
6HR MIN TEMP:  63; 6HR MAX TEMP:  69; 6HR PCP: TRACE;

TORRINGTON     MOSUNNY   72  28  19 N21       29.95R
6HR MIN TEMP:  71; 6HR MAX TEMP:  76;

PINE BLUFFS    FAIR      68  30  24 N12G18    30.02R

$$



USA.gov is the U.S. government's official web portal to all federal, state and local government web resources and services.